When you browse on this site, cookies collect data to enhance your experience and personalize the content and advertising you see.
Visit our Privacy Policy to learn more. By continuing to use the site, you agree to this use of cookies and data.
  • In Romania
  • List of Countries
  • For 7 days
  • Water Temperature
  • Satellite Maps
  • Weather Map
  • Weather Widgets
  • user-avatar
    Login

    Hourly Weather Trondheim

    Today, 17 July, Wednesday

    Time Temperature Precipitation Wind Pressure Humidity
    00:00 +9°C° 0 mm 1 mps 756 mmHg 92%
    01:00 +9°C° 0 mm 1 mps 756 mmHg 92%
    02:00 +9°C° 0 mm 1 mps 756 mmHg 92%
    03:00 +9°C° 0 mm 1 mps 755 mmHg 92%
    04:00 +9°C° 0 mm 1 mps 755 mmHg 92%
    05:00 +10°C° 0 mm 1 mps 755 mmHg 87%
    06:00 +12°C° 0 mm 1 mps 755 mmHg 82%
    07:00 +13°C° 0 mm 1 mps 755 mmHg 75%
    08:00 +14°C° 0 mm 1 mps 755 mmHg 70%
    09:00 +15°C° 0 mm 1 mps 754 mmHg 65%
    10:00 +18°C° 0 mm 1 mps 754 mmHg 60%
    11:00 +18°C° 0 mm 1 mps 754 mmHg 57%
    12:00 +19°C° 0 mm 1 mps 754 mmHg 55%
    13:00 +20°C° 0 mm 1 mps 753 mmHg 52%
    14:00 +20°C° 0 mm 1 mps 753 mmHg 51%
    15:00 +20°C° 0 mm 1 mps 753 mmHg 51%
    16:00 +20°C° 0 mm 1 mps 753 mmHg 50%
    17:00 +20°C° 0 mm 1 mps 753 mmHg 53%
    18:00 +19°C° 0 mm 1 mps 753 mmHg 55%
    19:00 +19°C° 0 mm 1 mps 753 mmHg 58%
    20:00 +16°C° 0 mm 1 mps 753 mmHg 64%
    21:00 +14°C° 0 mm 1 mps 753 mmHg 71%
    22:00 +12°C° 0 mm 1 mps 753 mmHg 77%
    23:00 +12°C° 0 mm 1 mps 752 mmHg 77%

    Tomorrow, 18 July, Thursday

    Time Temperature Precipitation Wind Pressure Humidity
    00:00 +12°C° 0 mm 1 mps 752 mmHg 78%
    01:00 +11°C° 0 mm 1 mps 752 mmHg 78%
    02:00 +11°C° 0 mm 1 mps 752 mmHg 79%
    03:00 +11°C° 0 mm 1 mps 752 mmHg 80%
    04:00 +11°C° 0 mm 1 mps 752 mmHg 82%
    05:00 +13°C° 0 mm 1 mps 751 mmHg 76%
    06:00 +15°C° 0 mm 1 mps 751 mmHg 70%
    07:00 +16°C° 0 mm 1 mps 751 mmHg 65%
    08:00 +19°C° 0 mm 1 mps 751 mmHg 61%
    09:00 +20°C° 0 mm 1 mps 751 mmHg 58%
    10:00 +22°C° 0 mm 1 mps 751 mmHg 55%
    11:00 +23°C° 0 mm 1 mps 750 mmHg 52%
    12:00 +24°C° 0 mm 2 mps 750 mmHg 49%
    13:00 +25°C° 0 mm 2 mps 750 mmHg 46%
    14:00 +25°C° 0 mm 2 mps 750 mmHg 44%
    15:00 +26°C° 0 mm 2 mps 750 mmHg 42%
    16:00 +26°C° 0 mm 3 mps 749 mmHg 40%
    17:00 +26°C° 0 mm 3 mps 749 mmHg 45%
    18:00 +25°C° 0 mm 3 mps 749 mmHg 49%
    19:00 +24°C° 0 mm 3 mps 749 mmHg 54%
    20:00 +21°C° 0 mm 3 mps 749 mmHg 59%
    21:00 +20°C° 0 mm 2 mps 750 mmHg 64%
    22:00 +18°C° 0 mm 2 mps 750 mmHg 69%
    23:00 +17°C° 0 mm 2 mps 750 mmHg 74%

    Day after tomorrow, 19 July, Friday

    Time Temperature Precipitation Wind Pressure Humidity
    00:00 +16°C° 0 mm 2 mps 750 mmHg 79%
    01:00 +15°C° 0 mm 1 mps 751 mmHg 83%
    02:00 +14°C° 0 mm 1 mps 751 mmHg 84%
    03:00 +14°C° 0 mm 1 mps 751 mmHg 85%
    04:00 +14°C° 0 mm 1 mps 751 mmHg 86%
    05:00 +15°C° 0 mm 1 mps 751 mmHg 80%
    06:00 +18°C° 0 mm 1 mps 751 mmHg 74%
    07:00 +18°C° 0 mm 2 mps 751 mmHg 67%
    08:00 +19°C° 0 mm 2 mps 751 mmHg 62%
    09:00 +21°C° 0 mm 3 mps 751 mmHg 57%
    10:00 +22°C° 0 mm 4 mps 751 mmHg 51%
    11:00 +22°C° 0 mm 4 mps 751 mmHg 50%
    12:00 +23°C° 0 mm 4 mps 752 mmHg 48%
    13:00 +23°C° 0 mm 5 mps 752 mmHg 47%
    14:00 +22°C° 0 mm 5 mps 752 mmHg 54%
    15:00 +20°C° 0 mm 5 mps 752 mmHg 60%
    16:00 +19°C° 0 mm 4 mps 752 mmHg 67%
    17:00 +18°C° 0 mm 4 mps 753 mmHg 73%
    18:00 +17°C° 0 mm 3 mps 753 mmHg 79%
    19:00 +14°C° 0 mm 3 mps 753 mmHg 85%
    20:00 +15°C° 0 mm 2 mps 753 mmHg 88%
    21:00 +14°C° 0 mm 1 mps 754 mmHg 91%
    22:00 +12°C° 0 mm 0 mps 754 mmHg 94%
    23:00 +12°C° 0 mm 0 mps 754 mmHg 94%

    20 July, Saturday

    Time Temperature Precipitation Wind Pressure Humidity
    00:00 +12°C° 0 mm 0 mps 754 mmHg 95%
    01:00 +11°C° 0 mm 0 mps 754 mmHg 95%
    02:00 +12°C° 0 mm 1 mps 754 mmHg 96%
    03:00 +12°C° 0 mm 1 mps 754 mmHg 96%
    04:00 +12°C° 0 mm 1 mps 755 mmHg 96%
    05:00 +14°C° 0 mm 1 mps 754 mmHg 91%
    06:00 +15°C° 0 mm 1 mps 754 mmHg 87%
    07:00 +16°C° 0 mm 1 mps 754 mmHg 82%
    08:00 +19°C° 0 mm 1 mps 754 mmHg 76%
    09:00 +20°C° 0 mm 1 mps 754 mmHg 69%
    10:00 +22°C° 0 mm 1 mps 754 mmHg 62%
    11:00 +23°C° 0 mm 1 mps 754 mmHg 58%
    12:00 +23°C° 0 mm 1 mps 754 mmHg 54%
    13:00 +24°C° 0 mm 1 mps 754 mmHg 50%
    14:00 +24°C° 0 mm 2 mps 754 mmHg 49%
    15:00 +25°C° 0 mm 2 mps 754 mmHg 48%
    16:00 +25°C° 0 mm 2 mps 754 mmHg 48%
    17:00 +24°C° 0 mm 2 mps 754 mmHg 52%
    18:00 +23°C° 0 mm 2 mps 754 mmHg 56%
    19:00 +23°C° 0 mm 2 mps 754 mmHg 61%
    20:00 +20°C° 0 mm 2 mps 754 mmHg 63%
    21:00 +19°C° 0 mm 2 mps 753 mmHg 66%
    22:00 +18°C° 0 mm 1 mps 753 mmHg 69%
    23:00 +17°C° 0 mm 2 mps 753 mmHg 69%

    21 July, Sunday

    Time Temperature Precipitation Wind Pressure Humidity
    00:00 +17°C° 0 mm 2 mps 753 mmHg 70%
    01:00 +16°C° 0 mm 2 mps 753 mmHg 71%
    02:00 +16°C° 0 mm 2 mps 753 mmHg 73%
    03:00 +16°C° 0 mm 3 mps 753 mmHg 75%
    04:00 +16°C° 0 mm 3 mps 753 mmHg 77%
    05:00 +18°C° 0 mm 3 mps 752 mmHg 74%
    06:00 +19°C° 0 mm 3 mps 752 mmHg 71%
    07:00 +20°C° 0 mm 4 mps 752 mmHg 68%
    08:00 +21°C° 0 mm 4 mps 753 mmHg 63%
    09:00 +22°C° 0 mm 5 mps 753 mmHg 59%
    10:00 +23°C° 0 mm 5 mps 753 mmHg 54%
    11:00 +23°C° 0 mm 5 mps 754 mmHg 54%
    12:00 +23°C° 0 mm 5 mps 754 mmHg 54%
    13:00 +23°C° 0 mm 4 mps 754 mmHg 54%
    14:00 +22°C° 0.2 mm 4 mps 755 mmHg 60%
    15:00 +21°C° 0.2 mm 3 mps 755 mmHg 66%
    16:00 +20°C° 0.2 mm 3 mps 755 mmHg 73%
    17:00 +20°C° 0.2 mm 2 mps 755 mmHg 76%
    18:00 +19°C° 0.2 mm 2 mps 756 mmHg 79%
    19:00 +18°C° 0.2 mm 2 mps 756 mmHg 82%
    20:00 +17°C° 0 mm 2 mps 756 mmHg 86%
    21:00 +16°C° 0 mm 1 mps 757 mmHg 89%
    22:00 +14°C° 0 mm 1 mps 757 mmHg 93%
    23:00 +14°C° 0.1 mm 1 mps 757 mmHg 93%

    22 July, Monday

    Time Temperature Precipitation Wind Pressure Humidity
    00:00 +14°C° 0.1 mm 1 mps 758 mmHg 93%
    01:00 +14°C° 0.1 mm 1 mps 758 mmHg 93%
    02:00 +14°C° 0 mm 1 mps 758 mmHg 94%
    03:00 +14°C° 0 mm 1 mps 759 mmHg 94%
    04:00 +14°C° 0 mm 1 mps 759 mmHg 94%
    05:00 +14°C° 0 mm 1 mps 759 mmHg 92%
    06:00 +15°C° 0 mm 1 mps 759 mmHg 91%
    07:00 +16°C° 0 mm 1 mps 760 mmHg 89%
    08:00 +18°C° 0 mm 1 mps 760 mmHg 85%
    09:00 +19°C° 0 mm 1 mps 760 mmHg 81%
    10:00 +20°C° 0 mm 1 mps 760 mmHg 77%
    11:00 +21°C° 0 mm 1 mps 760 mmHg 73%
    12:00 +22°C° 0 mm 1 mps 760 mmHg 69%
    13:00 +23°C° 0 mm 1 mps 760 mmHg 64%
    14:00 +23°C° 0 mm 1 mps 760 mmHg 65%
    15:00 +23°C° 0 mm 1 mps 759 mmHg 65%
    16:00 +24°C° 0 mm 1 mps 759 mmHg 65%
    17:00 +23°C° 0 mm 1 mps 759 mmHg 68%
    18:00 +23°C° 0 mm 1 mps 759 mmHg 71%
    19:00 +22°C° 0 mm 1 mps 759 mmHg 74%
    20:00 +21°C° 0 mm 1 mps 759 mmHg 80%
    21:00 +17°C° 0 mm 0 mps 759 mmHg 85%
    22:00 +16°C° 0 mm 0 mps 760 mmHg 91%
    23:00 +15°C° 0 mm 0 mps 760 mmHg 92%
    Show more